Погода в Осташкове

Погода в Осташкове : погода сейчас, прогноз погоды и архив. Всё, что Вы хотите узнать о погоде в Осташкове!

Поиск расширенной информации на нашем сайте:

Другие новости

Новости СМИ2

Главная страница сайта

Новости сайта

03.07.2017

Напоминаем, что на нашем специализированном сайте Метеоцентр.Азия вы можете получить высокодетализированные автоматические прогнозы погоды по пунктам России, СНГ и мира в авиационном формате (включающие направление и скорость ветра, видимость, явления погоды, количество и форму облачности, нижнюю и верхнюю границу облачности).


Погода в Осташкове - сегодня

Время (UTC), дата Ветер
(°,м/с) 
Видим.   Явления Облачность Т
(°С)
Тd
(°С)
f(%) Тe
(°С)
Pmin
(гПа)
dP
(гПа)
Po
(мм)
O2
(г/м3)
Тmin Tmax R s Состояние
почвы
09 18.02.18 340 (С) 10 км  {ливн. осадки}  6/0 средняя 
[Ac trans]
-4.5 -6.3 87 -4  1018.2  -0.4  743  305           
21 18.02.18 тихо ()   4000 м  дымка  10/10 300 м 
[St]
-5.1 -5.2 99 -5  1017.7  -0.2  743  306           
03 19.02.18 тихо ()   4000 м  дымка  10/10 300 м 
[St]
-5.6 -5.9 98 -6  1017.2  -0.2  742  306  -6       
06 19.02.18 360 (С) 4000 м  слаб. ливневой снег  10/10 300 м кучево-дожд. 
[Cb cap]
-6.6 -7.2 95 -9  1017.7  0.4  743  307  -6.6    41  равномерный
сухой снег
100% 
09 19.02.18 360 (С) 10 км  {ливн. осадки}  8/0 средняя 
[Ac trans]
-6.3 -8.1 87 -8  1018.5  0.7  743  307           
21 19.02.18 310 (СЗ) 4000 м  дымка  10/10 300 м 
[St]
-8.1 -8.6 96 -10  1020.6  -0.1  745  310           
03 20.02.18 300 (СЗ) 4000 м  дымка{ливн. осадки}  10/10 300 м 
[St]
-7.8 -8.5 95 -8  1020.8  -0.3  745  310  -8.9    0.7     
06 20.02.18 310 (СЗ) 4000 м  дымка{ливн. осадки}  9/9 600 м 
[Sc]
-8.3 -9.2 93 -10  1021.2  0.4  745  311  -8.9    0.4  42  равномерный
сухой снег
100% 
09 20.02.18 320 (СЗ) 10 км    9/9 600 м 
[Sc]
-7.4 -10.1 81 -10  1022.1  0.9  746  310           
12 20.02.18 320 (СЗ) 10 км    4/4 600 м 
[Sc]
-7.1 -10.4 77 -9  1022.3  0.3  746  310           
15 20.02.18 310 (СЗ) 10 км    3/0 средняя 
[Ac trans]
-9.7 -12.2 82 -11  1023.1  0.5  746  313           
21 20.02.18 290 (З) 4000 м  дымка  ясно 
-13.7 -14.5 94 -14  1024.7  0.3  747  318           
00 21.02.18 280 (З) 4000 м  дымка  ясно 
-15.8 -16.8 92 -16  1025.7  0.8  748  321           
09 21.02.18 тихо ()   10 км    ясно 
-12.4 -14 88 -12  1026.9  0.8  749  317           
12 21.02.18 300 (СЗ) 10 км    4/4 600 м 
[Sc]
-9.5 -13.3 74 -9  1026.6  0.1  749  314           
15 21.02.18 260 (З) 10 км    6/6 600 м 
[Sc]
-11.2 -13.6 82 -11  1026.7  -0.1  749  316           
21 21.02.18 тихо ()   10 км    4/4 600 м 
[Sc]
-13.5 -15.8 83 -14  1028.9  0.8  750  319           
00 22.02.18 280 (З) 4000 м  дымка  ясно 
-14.7 -15.8 91 -15  1029.8  0.8  751  321           
06 22.02.18 тихо ()   4000 м  дымка  6/0 средняя 
[Ac trans]
-17.8 -19.3 88 -18  1031  0.4  751  325  -19.9      42  равномерный
сухой снег
100% 
09 22.02.18 360 (С) 10 км  {ливн. осадки}  3/0 средняя 
[Ac trans]
-12.3 -15.2 79 -12  1030.9  0.5  752  319           
12 22.02.18 350 (С) 10 км  {ливн. осадки}  ясно 
-9.1 -13.7 69 -9  1030.3  -0.3  752  315           
15 22.02.18 260 (З) 10 км    ясно 
-10.5 -13.8 77 -10  1029.7  -0.7  751  316      0.2     
21 22.02.18 тихо ()   4000 м  дымка  ясно 
-20.9 -22.4 88 -21  1031.1  751  329           
00 23.02.18 тихо ()   10 км    ясно 
-24.4 -26.3 84 -24  1031.5  751  334           
03 23.02.18 тихо ()   10 км    ясно 
-24.6 -26.8 82 -25  1030.9  -0.6  751  334  -25.1         
Время (UTC), дата Ветер
(°,м/с) 
Видим.   Явления Облачность Т
(°С)
Тd
(°С)
f(%) Тe
(°С)
Pmin
(гПа)
dP
(гПа)
Po
(мм)
O2
(г/м3)
Тmin Tmax R s Состояние
почвы

Для получения пояснительной информации подведите курсор к названию столбца.

ПОГОДА в Осташкове - архив

Всё, что Вы хотите узнать о погоде в Осташкове - удобно и подробно!

Выберите нужную дату (начиная с 1 января 2015* года) и нажмите кнопку "Найти".
Будут отображены архивные сводки погоды по пункту Осташков, начиная с указанной даты.


Отображать данные в формате CSV (для использования в таблицах Excel)


Внимание! Наш архив погоды предназначен исключительно для личного некоммерческого использования в познавательных целях. Если Вам необходимы официальные справки о состоянии погоды (для производственных, юридических, коммерческих и т.п. целей), обращайтесь в органы Росгидромета.

*Примечание: данная дата относится к архиву по метеостанциям СССР (Россия, СНГ, Балтия).
Архив по метеостанциям Зарубежной Европы и Азии (кроме Китая) хранится 10 дней, по другим регионам земного шара (Китай, Африка, Америка, Австралия, Океания) - 1 день.

Осташков - район местоположения метеостанции


Название, широта, долгота, высота метеостанции:
Осташков 57.1°ш. 33.1°д. 218 м над ур. моря [Российская Федерация]

Дополнительная информация

В oтличие oт бoльшинства пoгoдных сайтoв мы публикуем пoдрoбную метеoинфoрмацию в детальнoм прoфессиoнальнoм фoрмате.

Характеристики температуры и влажнoсти вoздуха измеряются на высoте 2 м в тени вдали oт зданий и деревьев.
Скoрoсть ветра измеряется на высoте 10 м (на урoвне рoста челoвека скoрoсть ветра ниже в 1.5-2 раза). Если метеoстанция нахoдится в гoрoде или в лесу, тo скoрoсть ветра занижена на 2-4 м/с пo сравнению с oткрытым местoм. Скoрoсть ветра над акватoриями крупных рек и oзёр, а также на вершинах хoлмoв на 2-5 м/с выше, чем в oбычных услoвиях.
Атмoсфернoе давление в разных тoчках местнoсти мoжет значительнo oтличаться oт давления на метеoстанции, в зависимoсти oт услoвий рельефа (при пoдъёме на 10 м давление пoнижается примернo на 1 мм рт.ст.).